FW1492 Weather Reports


Display with metric or nautical units.
time (UTC)temp
F
wind
direction
speed
MPH
gust
MPH
rain 1hr
in
rain 24hr
in
rain mn
in
humidity
%
barometer
mb
20260906233032 63 295 0.0 0.0 0.00 0.02 0.00 85 1017.3
20260906231535 64 295 0.0 0.0 0.00 0.02 0.00 84 1017.3
20260906230030 65 295 0.0 0.0 0.00 0.02 0.00 83 1017.3
20260906224530 66 295 0.0 0.0 0.00 0.02 0.00 81 1017.1
20260906223030 66 295 0.0 0.0 0.00 0.02 0.00 81 1017.1
20260906221529 67 295 0.0 0.0 0.00 0.02 0.00 81 1017.0
20260906220028 67 295 0.0 0.0 0.00 0.02 0.00 80 1017.0
20260906214538 68 295 0.0 0.0 0.00 0.02 0.00 78 1016.8
20260906213027 69 295 0.0 1.0 0.00 0.02 0.00 76 1016.8
20260906211526 70 295 0.0 0.0 0.00 0.02 0.00 76 1016.6
20260906210033 70 355 0.0 2.0 0.00 0.02 0.00 76 1016.6
20260906204525 68 18 0.0 1.0 0.00 0.02 0.00 77 1016.5
20260906203025 70 355 0.0 5.0 0.00 0.02 0.00 73 1016.3
20260906201553 70 331 0.0 3.0 0.00 0.02 0.00 75 1016.3
20260906200022 70 299 0.0 3.0 0.00 0.02 0.00 74 1016.5
20260906194522 69 323 1.0 4.0 0.00 0.02 0.00 74 1016.3
20260906193020 69 318 0.0 3.0 0.00 0.02 0.00 76 1016.2
20260906191521 70 328 0.0 3.0 0.00 0.02 0.00 75 1016.3
20260906190021 70 356 1.0 3.0 0.00 0.02 0.00 76 1016.4
20260906184515 69 250 1.0 3.0 0.00 0.02 0.00 76 1016.3
20260906183016 68 308 0.0 4.0 0.00 0.02 0.00 79 1016.4
20260906181528 68 292 1.0 3.0 0.00 0.02 0.00 78 1016.4
20260906180011 68 319 0.0 2.0 0.00 0.02 0.00 79 1016.7
20260906174510 69 316 0.0 3.0 0.00 0.02 0.00 79 1016.5
20260906173008 68 304 1.0 3.0 0.00 0.02 0.00 80 1016.7
20260906171507 68 41 0.0 3.0 0.00 0.02 0.00 81 1016.7
20260906170005 67 271 0.0 3.0 0.00 0.02 0.00 81 1016.8
20260906164508 67 352 1.0 3.0 0.00 0.02 0.00 81 1016.7
20260906163002 67 330 0.0 4.0 0.00 0.02 0.00 83 1016.6
20260906161604 66 339 0.0 4.0 0.00 0.02 0.00 83 1016.8
20260906160057 66 54 0.0 4.0 0.00 0.02 0.00 86 1016.9
20260906154555 66 326 1.0 4.0 0.00 0.02 0.00 85 1017.1
20260906153107 65 17 1.0 5.0 0.00 0.02 0.00 87 1017.1
20260906151552 64 27 1.0 6.0 0.00 0.02 0.00 86 1017.2
20260906150050 64 308 1.0 4.0 0.00 0.02 0.00 90 1017.0
20260906144558 64 34 0.0 4.0 0.00 0.02 0.00 89 1017.0
20260906143044 63 304 1.0 5.0 0.00 0.02 0.00 92 1016.8
20260906141542 63 352 1.0 4.0 0.00 0.02 0.00 93 1016.7
20260906140048 61 299 0.0 2.0 0.00 0.02 0.00 95 1016.5
20260906134543 61 33 0.0 2.0 0.00 0.02 0.00 96 1016.6
20260906133049 61 344 0.0 3.0 0.00 0.02 0.00 96 1016.5
20260906131538 61 287 0.0 2.0 0.00 0.02 0.00 96 1016.5
20260906130108 60 328 1.0 4.0 0.00 0.02 0.00 97 1016.3
20260906124535 60 302 0.0 3.0 0.00 0.02 0.00 98 1016.4
20260906123039 59 98 0.0 2.0 0.00 0.02 0.00 98 1016.2
20260906121544 59 304 0.0 3.0 0.00 0.02 0.00 99 1016.1
20260906120032 58 276 0.0 1.0 0.00 0.02 0.00 98 1016.0
20260906114535 58 330 0.0 1.0 0.00 0.02 0.00 98 1015.7
20260906113028 57 297 0.0 1.0 0.00 0.02 0.00 98 1015.6
20260906111528 57 295 0.0 0.0 0.00 0.02 0.00 98 1015.5
20260906110027 57 295 0.0 0.0 0.00 0.02 0.00 97 1015.4
20260906104524 57 295 0.0 0.0 0.00 0.02 0.00 97 1015.0
20260906103025 57 295 0.0 0.0 0.00 0.02 0.00 97 1014.9
20260906101522 57 295 0.0 0.0 0.00 0.02 0.00 96 1014.8
20260906100022 57 295 0.0 0.0 0.00 0.02 0.00 96 1014.6
20260906094517 58 295 0.0 0.0 0.00 0.02 0.00 96 1014.5
20260906093032 58 295 0.0 0.0 0.00 0.02 0.00 95 1014.2
20260906091521 58 295 0.0 0.0 0.00 0.02 0.00 95 1014.1
20260906090016 58 295 0.0 1.0 0.00 0.02 0.00 94 1013.7
20260906084515 59 343 0.0 0.0 0.00 0.02 0.00 94 1013.6
20260906083011 59 343 0.0 0.0 0.00 0.02 0.00 93 1013.7
20260906081517 59 342 0.0 1.0 0.00 0.02 0.00 93 1013.6
20260906080009 59 313 0.0 0.0 0.00 0.02 0.00 92 1013.7
20260906074508 60 313 0.0 0.0 0.00 0.02 0.00 92 1013.5
20260906073013 60 313 0.0 1.0 0.00 0.02 0.00 92 1013.6
20260906071506 60 310 0.0 0.0 0.00 0.02 0.00 92 1013.5
20260906070003 61 309 0.0 0.0 0.00 0.02 0.00 92 1013.6
20260906064502 61 309 0.0 0.0 0.00 0.02 0.00 92 1013.7
20260906063001 61 15 0.0 3.0 0.00 0.02 0.00 92 1013.7
20260906061629 61 56 0.0 1.0 0.00 0.02 0.00 92 1013.7
20260906060056 61 335 0.0 1.0 0.00 0.02 0.00 92 1013.9
20260906054554 61 335 0.0 1.0 0.00 0.02 0.00 91 1014.1
20260906053057 61 27 0.0 3.0 0.00 0.02 0.00 91 1014.0
20260906051552 62 323 0.0 0.0 0.00 0.02 0.00 91 1014.1
20260906050107 62 323 0.0 1.0 0.00 0.02 0.00 91 1014.2
20260906044550 62 323 0.0 0.0 0.00 0.02 0.00 91 1014.2
20260906043104 62 289 0.0 1.0 0.00 0.02 0.00 92 1014.2
20260906041547 62 309 0.0 0.0 0.00 0.02 0.00 92 1014.1
20260906040105 61 305 0.0 0.0 0.00 0.02 0.00 93 1014.3
20260906034543 61 305 0.0 1.0 0.00 0.02 0.02 93 1014.2
20260906033044 61 345 0.0 0.0 0.00 0.02 0.02 94 1014.0
20260906031542 61 345 0.0 1.0 0.00 0.02 0.02 94 1014.0
20260906030041 61 345 0.0 1.0 0.00 0.02 0.02 94 1013.7
20260906024541 61 35 0.0 0.0 0.00 0.02 0.02 94 1014.0
20260906023057 62 35 0.0 0.0 0.00 0.02 0.02 93 1013.8
20260906021540 62 35 0.0 0.0 0.00 0.02 0.02 93 1013.9
20260906020038 62 35 0.0 0.0 0.00 0.02 0.02 94 1013.8
20260906014549 62 35 0.0 0.0 0.00 0.02 0.02 94 1013.8
20260906013036 63 35 0.0 0.0 0.00 0.02 0.02 94 1013.6
20260906011544 63 35 0.0 0.0 0.00 0.02 0.02 94 1013.4
20260906010033 63 35 0.0 0.0 0.01 0.02 0.02 94 1013.4
20260906004533 63 35 0.0 0.0 0.02 0.02 0.02 93 1013.3
20260906003031 64 35 0.0 0.0 0.02 0.02 0.02 93 1013.1
20260906001531 64 35 0.0 0.0 0.02 0.02 0.02 91 1012.9
20260906000030 65 229 0.0 4.0 0.01 0.01 0.01 89 1013.1
20260905234527 67 8 2.0 6.0 0.00 0.00 0.00 88 1012.7